Regional Weather Roundup
Issued by NWS Nashville, TN

Home | Current Version | Previous Version | Text Only | Print | Product List | Glossary On
Versions: 1 2 3 4 5 6 7 8 9 10 11 12 13 14 15 16 17 18 19 20 21 22 23 24 25 26 27 28 29 30 31 32 33 34 35 36 37 38 39 40 41 42 43 44 45 46 47 48 49 50
000
ASUS44 KOHX 290610
RWROHX
MIDDLE TENNESSEE HOURLY WEATHER ROUNDUP
NATIONAL WEATHER SERVICE NASHVILLE TN
100 AM CDT THU SEP 29 2016

NOTE: "FAIR" INDICATES FEW OR NO CLOUDS BELOW 12,000 FEET WITH
NO SIGNIFICANT WEATHER AND/OR OBSTRUCTIONS TO VISIBILITY.

* THESE REPORTS ARE NOT UNDER NWS QUALITY CONTROL AND MAY NOT
  REPORT WEATHER SUCH AS PRECIPITATION AND FOG.


TNZ005>011-023>034-057-059-062>066-078-080-290700
...NORTHERN MIDDLE TENNESSEE...

CITY           SKY/WX    TMP DP  RH WIND       PRES   REMARKS
CLARKSVILLE    CLEAR     50  44  80 W6        30.05F
CROSSVILLE     CLOUDY    54  50  86 W5        30.01S
GALLATIN       CLEAR     54  48  82 CALM      30.05F
DICKSON        CLEAR     49  44  83 CALM      30.05F
NASHVILLE      CLEAR     56  46  69 NW9       30.05S
WEST NASHVILLE CLEAR     52  45  76 NW6       30.05S
PORTLAND       CLEAR     50  48  93 CALM      30.03F
SMYRNA         CLEAR     53  48  83 NW7       30.05S
SPARTA         PTCLDY    54  54 100 CALM      30.01S
$$
TNZ056-058-060-061-075>077-079-093>097-290700
...SOUTHERN MIDDLE TENNESSEE...

CITY           SKY/WX    TMP DP  RH WIND       PRES   REMARKS
COLUMBIA       CLEAR     55  52  88 N3        30.04S
FAYETTEVILLE   CLOUDY    61  50  67 N13G18    30.02F
LEWISBURG      CLEAR     56  47  71 NW3       30.04S
MCMINNVILLE    MOCLDY    57  55  94 NW5       30.02S
MURFREESBORO   CLEAR     55  51  86 NW5       30.03
SHELBYVILLE    CLEAR     55  52  88 NW3       30.05S
TULLAHOMA      MOCLDY    55  50  82 N7        30.03F
WINCHESTER     MOCLDY    57  52  82 N3        30.02S
$$


...KEY TO REMARKS...
VSB - VISIBILITY IN MILES
WCI - WIND CHILL INDEX
HX  - HEAT INDEX




USA.gov is the U.S. government's official web portal to all federal, state and local government web resources and services.